Overview Statistics Trail Chart Weather Telemetry Raw packets
 

This is the latest recevied weather packets stored in our database for station/object IZ5ILU-16. If no packets are shown the sender has not sent any weather packets the latest 10 day(s).

<< 31 32 33 34 35 36 37 >>
Time Temp. Humidity Pressure Rain* Wind** Luminosity Snow
1788198705 27.22° C 63% 1015.5 hPa 0 mm - - -
1788198105 27.78° C 62% 1015.6 hPa 0 mm - - -
1788197505 27.78° C 60% 1015.7 hPa 0 mm - - -
1788196905 28.33° C 59% 1015.8 hPa 0 mm - - -
1788196305 28.33° C 57% 1015.7 hPa 0 mm - - -
1788195705 28.89° C 56% 1015.7 hPa 0 mm - - -
1788195105 29.44° C 54% 1015.8 hPa 0 mm - - -
1788194505 30° C 52% 1015.8 hPa 0 mm - - -
1788193905 30.56° C 52% 1015.8 hPa 0 mm - - -
1788193305 30.56° C 51% 1015.8 hPa 0 mm - - -
1788192705 30.56° C 50% 1015.9 hPa 0 mm - - -
1788192105 31.11° C 50% 1015.8 hPa 0 mm - - -
1788191505 31.11° C 50% 1015.9 hPa 0 mm - - -
1788190905 31.11° C 50% 1015.9 hPa 0 mm - - -
1788190305 30.56° C 49% 1015.9 hPa 0 mm - - -
1788189705 31.11° C 48% 1015.9 hPa 0 mm - - -
1788189105 31.11° C 48% 1015.9 hPa 0 mm - - -
1788188505 30.56° C 45% 1015.9 hPa 0 mm - - -
1788187905 30.56° C 46% 1015.9 hPa 0 mm - - -
1788187305 30.56° C 47% 1015.9 hPa 0 mm - - -
1788186705 30.56° C 50% 1015.9 hPa 0 mm - - -
1788186105 30.56° C 49% 1015.8 hPa 0 mm - - -
1788185505 30° C 51% 1015.8 hPa 0 mm - - -
1788184905 30° C 51% 1015.9 hPa 0 mm - - -
1788184306 30° C 53% 1015.9 hPa 0 mm - - -

* Rain latest hour (hover to see other rain measurements)
** Current wind speed in m/s (hover to see current wind gust speed)